W2PJ Weather Reports


time (UTC)temp
C
wind
direction
speed
KPH
gust
KPH
rain 1hr
cm
rain 24hr
cm
rain mn
cm
humidity
%
barometer
mb
20260506222037 6 293 0.0 1.6 0.00 1.50 1.32 93 1009.7
20260506221516 6 317 0.0 1.6 0.00 1.50 1.32 93 1009.8
20260506221036 6 278 0.0 4.8 0.00 1.50 1.32 93 1009.7
20260506220554 6 317 0.0 4.8 0.00 1.50 1.32 93 1009.7
20260506220014 6 313 0.0 4.8 0.00 1.50 1.32 93 1009.6
20260506215528 6 316 0.0 1.6 0.00 1.55 1.32 93 1009.4
20260506215044 6 337 0.0 1.6 0.00 1.55 1.32 93 1009.3
20260506214525 5 292 0.0 1.6 0.00 1.55 1.32 93 1009.3
20260506214040 5 307 0.0 3.2 0.00 1.55 1.32 93 1009.3
20260506213600 6 316 0.0 1.6 0.00 1.55 1.32 93 1009.3
20260506213107 6 297 0.0 1.6 0.00 1.55 1.32 93 1009.3
20260506212511 6 282 0.0 1.6 0.00 1.55 1.32 93 1009.2
20260506212028 6 313 0.0 1.6 0.00 1.55 1.32 93 1009.1
20260506211610 6 240 0.0 4.8 0.00 1.55 1.32 93 1008.9
20260506211018 6 293 0.0 6.4 0.00 1.55 1.32 93 1009.1
20260506210539 6 238 0.0 6.4 0.00 1.55 1.32 93 1009.0
20260506210137 6 307 0.0 12.9 0.00 1.55 1.32 93 1008.9
20260506205520 6 302 0.0 12.9 0.00 1.60 1.32 93 1008.7
20260506205036 6 297 0.0 1.6 0.03 1.60 1.32 93 1008.7
20260506204556 6 300 0.0 1.6 0.03 1.60 1.32 93 1008.6
20260506204121 6 310 0.0 1.6 0.03 1.60 1.32 93 1008.5
20260506203634 6 285 0.0 3.2 0.03 1.60 1.32 93 1008.5
20260506203040 5 289 0.0 3.2 0.03 1.60 1.32 93 1008.4
20260506202546 5 330 0.0 1.6 0.05 1.60 1.32 93 1008.2
20260506202050 6 299 0.0 1.6 0.05 1.60 1.32 93 1008.2
20260506201624 6 323 0.0 3.2 0.05 1.60 1.32 93 1008.3
20260506201009 6 3 0.0 4.8 0.05 1.60 1.32 93 1008.2
20260506200528 6 307 0.0 4.8 0.08 1.60 1.32 93 1008.3
20260506200118 6 299 0.0 8.0 0.08 1.60 1.32 93 1008.3
20260506195613 6 273 0.0 8.0 0.08 1.60 1.32 93 1008.3
20260506195125 6 313 0.0 4.8 0.08 1.57 1.30 93 1008.2
20260506194524 6 337 0.0 0.0 0.08 1.57 1.30 93 1008.2
20260506194041 6 265 0.0 1.6 0.10 1.57 1.30 93 1008.2
20260506193556 6 338 0.0 1.6 0.10 1.57 1.30 93 1008.1
20260506193110 6 299 0.0 1.6 0.10 1.57 1.30 93 1008.0
20260506192514 6 302 0.0 1.6 0.08 1.55 1.27 93 1008.0
20260506192037 6 294 0.0 3.2 0.08 1.55 1.27 93 1008.0
20260506191604 6 273 0.0 3.2 0.08 1.55 1.27 93 1007.9
20260506191124 6 278 0.0 3.2 0.08 1.55 1.27 93 1007.9
20260506190509 6 302 0.0 3.2 0.05 1.52 1.24 93 1008.0
20260506190045 6 297 0.0 3.2 0.05 1.52 1.24 93 1007.9
20260506185606 6 294 0.0 6.4 0.05 1.63 1.24 93 1007.9
20260506185120 6 305 0.0 6.4 0.03 1.60 1.22 93 1007.8
20260506184524 6 296 0.0 1.6 0.03 1.60 1.22 93 1007.6
20260506184042 6 314 0.0 0.0 0.00 1.57 1.19 93 1007.5
20260506183602 6 318 0.0 0.0 0.00 1.57 1.19 93 1007.5
20260506183007 6 323 0.0 0.0 0.00 1.57 1.19 93 1007.4
20260506182526 6 306 0.0 0.0 0.00 1.57 1.19 93 1007.3
20260506182044 6 296 0.0 0.0 0.00 1.57 1.19 93 1007.2
20260506181519 6 304 0.0 0.0 0.00 1.57 1.19 93 1007.2
20260506181034 6 318 0.0 0.0 0.00 1.57 1.19 93 1007.2
20260506180554 6 307 0.0 0.0 0.00 1.57 1.19 93 1007.2
20260506180014 6 307 0.0 0.0 0.00 1.57 1.19 93 1007.0
20260506175530 6 304 0.0 0.0 0.03 1.57 1.19 93 1007.0
20260506175046 6 319 0.0 0.0 0.03 1.57 1.19 93 1007.0
20260506174518 6 302 0.0 0.0 0.05 1.57 1.19 93 1006.9
20260506174039 6 317 0.0 0.0 0.05 1.57 1.19 93 1007.0
20260506173559 6 318 0.0 0.0 0.05 1.57 1.19 93 1006.8
20260506173026 6 309 0.0 0.0 0.05 1.57 1.19 93 1006.9
20260506172544 6 27 0.0 0.0 0.05 1.57 1.19 93 1006.9
20260506172056 6 29 0.0 0.0 0.05 1.57 1.19 93 1006.8
20260506171505 6 24 0.0 0.0 0.05 1.57 1.19 93 1006.8
20260506171026 6 323 0.0 0.0 0.05 1.57 1.19 93 1006.8
20260506170549 6 337 0.0 0.0 0.08 1.57 1.19 93 1006.8
20260506170017 6 302 0.0 0.0 0.08 1.57 1.19 93 1006.7
20260506165534 6 328 0.0 0.0 0.05 1.55 1.17 93 1006.8
20260506165056 6 10 0.0 0.0 0.05 1.55 1.17 93 1006.8
20260506164524 6 323 0.0 0.0 0.03 1.52 1.14 93 1007.0
20260506164042 6 316 0.0 0.0 0.05 1.52 1.14 93 1006.8
20260506163556 6 9 0.0 0.0 0.05 1.52 1.14 93 1006.7
20260506163109 5 28 0.0 0.0 0.05 1.52 1.14 93 1006.8
20260506162515 5 307 0.0 0.0 0.05 1.52 1.14 93 1006.9
20260506162041 5 327 0.0 0.0 0.05 1.52 1.14 93 1007.0
20260506161520 5 337 0.0 0.0 0.05 1.52 1.14 93 1007.0
20260506161028 5 353 0.0 0.0 0.05 1.52 1.14 93 1007.1
20260506160550 5 352 0.0 0.0 0.03 1.50 1.12 93 1007.0
20260506160022 5 327 0.0 0.0 0.05 1.50 1.12 93 1007.1
20260506155540 5 282 0.0 0.0 0.05 1.50 1.12 93 1007.0
20260506155100 5 20 0.0 0.0 0.05 1.50 1.12 93 1007.0
20260506154506 5 316 0.0 0.0 0.05 1.50 1.12 93 1007.2
20260506154029 5 295 0.0 0.0 0.05 1.45 1.09 93 1007.1
20260506153547 5 65 0.0 0.0 0.05 1.45 1.09 93 1007.0
20260506153022 5 1 0.0 0.0 0.08 1.45 1.09 93 1007.1
20260506152540 5 303 0.0 0.0 0.08 1.45 1.09 93 1007.3
20260506152100 5 306 0.0 0.0 0.10 1.45 1.09 93 1007.1
20260506151502 5 325 0.0 0.0 0.10 1.45 1.09 93 1006.7
20260506151022 5 337 0.0 0.0 0.13 1.45 1.09 93 1006.6
20260506150546 5 31 0.0 0.0 0.13 1.45 1.09 93 1006.5
20260506150010 5 48 0.0 0.0 0.13 1.42 1.07 93 1006.4
20260506145529 5 318 0.0 0.0 0.13 1.42 1.07 93 1006.4
20260506145046 5 29 0.0 0.0 0.15 1.42 1.07 93 1006.5
20260506144512 5 58 0.0 0.0 0.15 1.42 1.07 93 1006.5
20260506144030 5 337 0.0 0.0 0.15 1.42 1.04 93 1006.7
20260506143546 5 67 0.0 0.0 0.15 1.42 1.04 93 1006.5
20260506143022 5 43 0.0 0.0 0.15 1.40 1.02 93 1006.6
20260506142536 5 20 0.0 0.0 0.18 1.40 1.02 93 1006.7
20260506141520 5 24 0.0 0.0 0.18 1.37 0.99 93 1006.6
20260506141038 5 32 0.0 0.0 0.18 1.35 0.97 93 1006.7
20260506140557 5 34 0.0 0.0 0.20 1.35 0.97 93 1006.7
20260506140006 5 35 0.0 0.0 0.23 1.32 0.94 93 1006.6
20260506135526 5 64 0.0 0.0 0.23 1.32 0.94 93 1006.7
20260506135042 5 44 0.0 0.0 0.23 1.30 0.91 93 1006.6
20260506134620 5 49 0.0 1.6 0.23 1.30 0.91 93 1006.7
20260506134017 5 1 0.0 1.6 0.23 1.27 0.89 93 1006.8
20260506133535 5 32 0.0 0.0 0.25 1.27 0.89 93 1006.8
20260506133002 5 15 0.0 0.0 0.23 1.24 0.86 93 1006.9
20260506132524 5 27 0.0 0.0 0.23 1.22 0.84 93 1006.9
20260506132040 5 32 0.0 0.0 0.23 1.22 0.84 93 1006.7
20260506131521 5 29 0.0 0.0 0.23 1.19 0.81 93 1006.8
20260506131035 5 335 0.0 0.0 0.20 1.17 0.79 93 1007.0
20260506130556 5 337 0.0 0.0 0.18 1.12 0.71 93 1006.9
20260506130011 5 326 0.0 0.0 0.15 1.09 0.71 93 1006.9
20260506125530 5 10 0.0 0.0 0.18 1.09 0.71 93 1006.6
20260506125048 5 55 0.0 0.0 0.18 1.07 0.69 93 1006.8
20260506124510 5 39 0.0 0.0 0.15 1.04 0.66 93 1006.5
20260506124022 5 28 0.0 0.0 0.18 1.04 0.66 93 1006.6
20260506123544 5 58 0.0 0.0 0.15 1.02 0.64 93 1006.5
20260506123104 5 76 0.0 0.0 0.18 1.02 0.64 93 1006.5
20260506122622 5 69 0.0 0.0 0.18 0.99 0.61 93 1006.7
20260506122007 5 72 0.0 0.0 0.20 0.99 0.61 93 1006.6
20260506121549 5 66 0.0 0.0 0.20 0.97 0.58 93 1006.7
20260506121110 5 43 0.0 0.0 0.20 0.97 0.58 93 1006.7
20260506120628 5 59 0.0 0.0 0.20 0.94 0.56 93 1006.8
20260506120042 5 34 0.0 0.0 0.23 0.94 0.56 93 1006.8
20260506115602 5 66 0.0 0.0 0.00 0.00 0.53 93 1006.6
20260506115121 5 40 0.0 0.0 0.20 0.89 0.51 93 1006.6
20260506114526 6 114 0.0 0.0 0.20 0.89 0.51 93 1006.7
20260506114038 6 39 0.0 0.0 0.20 0.86 0.48 93 1006.6
20260506113556 6 261 0.0 0.0 0.20 0.86 0.48 93 1006.9
20260506113005 6 22 0.0 0.0 0.18 0.84 0.46 93 1006.7
20260506112520 6 289 0.0 0.0 0.18 0.81 0.43 93 1006.6
20260506112040 6 38 0.0 0.0 0.15 0.79 0.41 93 1006.8
20260506111513 6 72 0.0 0.0 0.13 0.76 0.38 93 1006.7
20260506111028 6 62 0.0 0.0 0.10 0.71 0.36 93 1006.8
20260506110548 6 69 0.0 0.0 0.10 0.71 0.36 93 1006.9
20260506110119 6 58 0.0 0.0 0.10 0.71 0.33 93 1006.9
20260506105515 6 266 0.0 0.0 0.08 0.69 0.30 93 1007.0
20260506105036 6 29 0.0 0.0 0.08 0.69 0.30 93 1006.9
20260506104510 6 50 0.0 0.0 0.08 0.69 0.30 93 1006.7
20260506104024 6 79 0.0 0.0 0.08 0.66 0.28 93 1006.6
20260506103544 6 72 0.0 0.0 0.08 0.66 0.28 93 1006.6
20260506103124 6 79 0.0 0.0 0.08 0.66 0.28 93 1006.5
20260506102514 6 53 0.0 0.0 0.05 0.64 0.25 93 1006.7
20260506102032 6 42 0.0 0.0 0.05 0.64 0.25 93 1006.7
20260506101615 6 46 0.0 0.0 0.05 0.64 0.25 93 1006.7
20260506101006 6 58 0.0 0.0 0.08 0.64 0.25 93 1006.9
20260506100524 6 116 0.0 0.0 0.08 0.64 0.25 93 1006.9
20260506100002 6 315 0.0 0.0 0.05 0.61 0.23 93 1007.0
20260506095524 6 53 0.0 0.0 0.08 0.61 0.23 93 1007.0
20260506095040 6 296 0.0 0.0 0.08 0.61 0.23 93 1007.5
20260506094517 6 58 0.0 0.0 0.10 0.61 0.23 93 1007.1
20260506094039 6 257 0.0 0.0 0.08 0.58 0.20 93 1007.8
20260506093554 6 48 0.0 1.6 0.10 0.58 0.20 93 1007.2
20260506093126 6 278 0.0 1.6 0.10 0.58 0.20 93 1007.0
20260506092522 6 50 0.0 1.6 0.10 0.58 0.20 93 1007.7
20260506092039 6 354 0.0 0.0 0.10 0.58 0.20 93 1007.5
20260506091558 6 52 0.0 1.6 0.10 0.58 0.20 93 1007.3
20260506091115 6 62 0.0 0.0 0.10 0.56 0.18 93 1007.0
20260506090630 6 318 0.0 0.0 0.10 0.56 0.18 93 1007.0
20260506090021 7 358 0.0 0.0 0.10 0.56 0.18 93 1007.2
20260506085539 7 28 0.0 0.0 0.08 0.56 0.15 93 1007.2
20260506085058 7 165 0.0 0.0 0.08 0.56 0.15 93 1007.4
20260506084510 7 337 0.0 0.0 0.05 0.53 0.13 93 1007.6
20260506084023 7 358 0.0 0.0 0.05 0.53 0.13 93 1007.5
20260506083541 7 352 0.0 0.0 0.03 0.51 0.10 93 1007.5
20260506083005 7 335 0.0 0.0 0.03 0.51 0.10 93 1007.5
20260506082519 7 3 0.0 1.6 0.03 0.51 0.10 93 1007.2
20260506082040 7 43 0.0 1.6 0.03 0.51 0.10 93 1007.1
20260506081506 7 3 0.0 0.0 0.03 0.51 0.10 93 1007.2
20260506081028 7 333 0.0 0.0 0.00 0.48 0.08 93 1007.3
20260506080543 7 32 0.0 0.0 0.00 0.48 0.08 93 1007.1
20260506073123 7 74 0.0 0.0 0.00 0.48 0.08 93 1006.8
20260506072542 7 13 0.0 0.0 0.08 0.48 0.08 93 1007.0
20260506072100 7 14 0.0 0.0 0.08 0.48 0.08 93 1007.3
20260506071510 7 27 0.0 0.0 0.08 0.48 0.08 93 1007.2
20260506071028 7 83 0.0 0.0 0.08 0.48 0.08 93 1007.2
20260506070545 7 88 0.0 0.0 0.08 0.48 0.08 93 1007.1
20260506062100 7 359 0.0 0.0 0.00 0.41 0.00 93 1007.9
20260506061518 7 290 0.0 1.6 0.00 0.41 0.00 93 1007.7
20260506061033 7 90 0.0 1.6 0.00 0.41 0.00 93 1007.2
20260506060546 7 327 0.0 1.6 0.00 0.41 0.00 93 1007.6
20260506051029 7 88 0.0 0.0 0.00 0.41 0.00 93 1008.5
20260506050548 7 84 0.0 0.0 0.00 0.41 0.00 93 1008.5
20260506050126 7 81 0.0 0.0 0.00 0.41 0.00 93 1008.7
20260506045041 7 337 0.0 0.0 0.00 0.41 0.00 93 1008.6
20260506044512 7 29 0.0 0.0 0.00 0.41 0.00 93 1008.4
20260506044029 7 70 0.0 0.0 0.00 0.41 0.00 93 1008.4
20260506043550 7 49 0.0 0.0 0.00 0.41 0.00 93 1008.6
20260506043015 7 50 0.0 0.0 0.00 0.41 0.00 93 1008.7
20260506042528 7 52 0.0 0.0 0.03 0.41 0.00 92 1008.7
20260506042045 8 48 0.0 0.0 0.03 0.41 0.00 92 1008.7
20260506041505 8 77 0.0 0.0 0.03 0.41 0.00 92 1008.8
20260506041023 8 105 0.0 0.0 0.03 0.41 0.00 92 1008.8
20260506040537 8 82 0.0 0.0 0.05 0.41 0.00 92 1009.1
20260506040005 8 81 0.0 1.6 0.05 0.41 0.00 92 1008.7
20260506035531 8 86 0.0 0.0 0.05 0.41 0.41 92 1008.8
20260506035053 8 72 0.0 0.0 0.08 0.41 0.41 92 1009.1
20260506034523 8 31 0.0 0.0 0.08 0.41 0.41 92 1008.8
20260506034039 8 150 0.0 0.0 0.10 0.41 0.41 92 1008.8
20260506033558 8 150 0.0 0.0 0.10 0.41 0.41 92 1009.0
20260506033107 8 152 0.0 0.0 0.13 0.41 0.41 92 1009.1
20260506032632 8 151 0.0 0.0 0.10 0.38 0.38 92 1009.3
20260506032040 8 154 0.0 0.0 0.10 0.38 0.38 92 1009.2
20260506031526 8 210 0.0 0.0 0.10 0.38 0.38 92 1009.1
20260506031038 8 212 0.0 0.0 0.10 0.38 0.38 92 1009.5
20260506030552 8 202 0.0 0.0 0.08 0.36 0.36 92 1009.3
20260506030018 8 148 0.0 0.0 0.08 0.36 0.36 92 1009.1
20260506025539 8 259 0.0 0.0 0.08 0.36 0.36 92 1008.9
20260506025056 8 42 0.0 0.0 0.05 0.33 0.33 92 1008.9
20260506024612 8 118 0.0 0.0 0.05 0.33 0.33 92 1009.0
20260506024015 8 117 0.0 0.0 0.03 0.30 0.30 92 1009.5
20260506023537 8 341 0.0 0.0 0.03 0.30 0.30 92 1009.1
20260506023115 8 242 0.0 0.0 0.00 0.28 0.28 92 1009.4
20260506022517 8 70 0.0 0.0 0.03 0.28 0.28 92 1009.1
20260506022038 8 275 0.0 0.0 0.03 0.28 0.28 92 1009.3
20260506021517 8 327 0.0 0.0 0.05 0.28 0.28 92 1009.2
20260506021031 8 271 0.0 0.0 0.05 0.28 0.28 92 1008.9
20260506020549 8 58 0.0 0.0 0.05 0.28 0.28 92 1008.3
20260506020005 8 29 0.0 0.0 0.05 0.28 0.28 92 1008.6
20260506015519 8 349 0.0 0.0 0.05 0.28 0.28 92 1008.7
20260506015039 8 24 0.0 0.0 0.05 0.28 0.28 92 1008.4
20260506014507 8 39 0.0 0.0 0.05 0.28 0.28 91 1008.6
20260506014022 8 339 0.0 0.0 0.05 0.28 0.28 91 1008.6
20260506013542 8 10 0.0 0.0 0.05 0.28 0.28 90 1008.8
20260506013015 8 327 0.0 0.0 0.03 0.25 0.25 89 1008.9
20260506012531 8 22 0.0 1.6 0.03 0.25 0.25 87 1008.7
20260506012047 9 328 0.0 3.2 0.03 0.25 0.25 85 1008.8
20260506011501 10 13 0.0 6.4 0.00 0.23 0.23 82 1008.8
20260506011018 10 295 0.0 11.3 0.00 0.23 0.23 80 1008.8
20260506010536 10 255 0.0 11.3 0.00 0.23 0.23 78 1008.6
20260506010014 11 306 0.0 6.4 0.00 0.23 0.23 77 1008.1
20260506005530 11 259 0.0 6.4 0.00 0.23 0.23 76 1008.1
20260506005048 11 316 0.0 4.8 0.00 0.23 0.23 77 1008.2
20260506004509 11 309 0.0 9.7 0.00 0.23 0.23 76 1008.0
20260506004025 11 309 0.0 9.7 0.00 0.23 0.23 77 1008.3
20260506003539 11 314 0.0 6.4 0.00 0.23 0.23 77 1008.0
20260506003016 12 327 0.0 1.6 0.00 0.23 0.23 77 1007.8
20260506002530 12 331 0.0 1.6 0.00 0.23 0.23 77 1007.7
20260506002046 12 272 0.0 12.9 0.00 0.23 0.23 77 1007.8
20260506001515 12 305 0.0 12.9 0.00 0.23 0.23 77 1007.9
20260506001029 12 291 0.0 3.2 0.00 0.23 0.23 78 1007.8
20260506000545 12 279 0.0 11.3 0.00 0.23 0.23 78 1007.6
20260506000038 12 48 0.0 11.3 0.00 0.23 0.23 78 1007.3
20260505235534 12 309 0.0 12.9 0.00 0.23 0.23 78 1007.1
20260505235053 12 342 0.0 12.9 0.00 0.23 0.23 78 1006.9
20260505234520 13 342 0.0 17.7 0.00 0.23 0.23 78 1006.7
20260505234027 13 304 0.0 16.1 0.00 0.23 0.23 79 1006.7
20260505233542 13 46 0.0 9.7 0.00 0.23 0.23 83 1006.4
20260505233120 13 317 0.0 0.0 0.00 0.23 0.23 86 1006.3
20260505232513 13 359 0.0 0.0 0.00 0.23 0.23 86 1006.1
20260505232033 13 41 0.0 0.0 0.00 0.23 0.23 86 1006.0
20260505231509 13 38 0.0 0.0 0.00 0.23 0.23 87 1005.9
20260505231031 13 337 0.0 0.0 0.00 0.23 0.23 88 1005.9
20260505230546 13 5 0.0 0.0 0.00 0.23 0.23 88 1005.7
20260505230047 14 355 0.0 0.0 0.00 0.23 0.23 88 1005.8
20260505225545 14 6 0.0 0.0 0.00 0.23 0.23 88 1005.7
20260505225059 14 301 0.0 0.0 0.00 0.23 0.23 88 1005.7
20260505224607 14 331 0.0 0.0 0.00 0.23 0.23 87 1005.7
20260505224020 15 27 0.0 0.0 0.00 0.23 0.23 87 1005.4
20260505223546 15 354 0.0 0.0 0.00 0.23 0.23 88 1005.2
20260505223026 15 133 0.0 6.4 0.00 0.23 0.23 88 1005.1
20260505222544 15 59 0.0 6.4 0.00 0.23 0.23 88 1004.9